Location: C�mpuri de-Sus
(45.9500°N, 22.5500°E)
Time: 07:12:40
(UTC+00:00)

Cosmos 839 Rocket - Pass Details

Date: 03 December 2023
Orbit: 960 x 2092 km, 65.9° (Epoch: 04 March)

Event Time Altitude Azimuth Distance (km) Brightness Sun altitude
Exits shadow 23:38:07 18° 91° (E) 3,911 7.2 -61.4°
Drops below altitude 10° 23:44:53 10° 57° (ENE) 4,559 7.7 -60.6°
Sets 23:49:42 0° 42° (NE) 5,489 8.3 -60.0°
